This demonstration page uses our WeatherBlox Daily Observations layout. Learn more.

Left ArrowRight Arrow

39.01783, -85.05884

Hourly Observations for May 13, 2019

Temp ( °F °C ) Dew Point ( °F °C ) Humidity (%) Winds ( mph kmh ) Pressure ( in mb ) Visibility ( mi km ) Precip ( " mm )
12:52 am 00:52 Cloudy with Mist and Fog 50 10 48 8.9 93 93 W 9 15 29.77 1008 3 5 0.01 0.25
1:14 am 01:14 Cloudy 50 10 47 8.3 89 89 W 9 15 29.79 1009 10 16 0.00 0.00
1:52 am 01:52 Cloudy with Mist and Fog 49 9.4 47 8.3 93 93 WNW 10 17 29.77 1008 6 10 0.00 0.00
2:52 am 02:52 Cloudy with Light Rain 49 9.4 46 7.8 90 90 W 12 19 29.76 1008 5 8 0.00 0.03
3:52 am 03:52 Cloudy 48 8.9 45 7.2 89 89 W 9 15 29.76 1008 9 14 0.01 0.25
4:52 am 04:52 Cloudy 48 8.9 45 7.2 89 89 WSW 7 11 29.78 1008 10 16 0.00 0.00
5:06 am 05:06 Cloudy 48 8.9 45 7.2 89 89 WSW 7 11 29.79 1009 10 16 0.00 0.00
5:52 am 05:52 Cloudy 48 8.9 45 7.2 89 89 W 10 17 29.78 1008 10 16 0.00 0.00
6:19 am 06:19 Cloudy 48 8.9 45 7.2 89 89 W 9 15 29.80 1009 10 16 0.00 0.00
6:52 am 06:52 Cloudy 48 8.9 45 7.2 89 89 W 8 13 29.80 1009 10 16 0.00 0.00
7:52 am 07:52 Cloudy with Light Rain 48 8.9 45 7.2 89 89 WSW 8 13 29.83 1010 10 16 0.00 0.03
8:42 am 08:42 Cloudy with Light Rain 48 8.9 45 7.2 89 89 W 9 15 29.86 1011 7 11 0.00 0.03
8:52 am 08:52 Cloudy with Light Rain 49 9.4 46 7.8 90 90 W 9 15 29.85 1011 7 11 0.01 0.25
9:09 am 09:09 Cloudy 49 9.4 46 7.8 90 90 W 7 11 29.86 1011 9 14 0.00 0.03
9:52 am 09:52 Cloudy 48 8.9 45 7.2 89 89 W 16 26 29.86 1011 8 13 0.00 0.03
10:16 am 10:16 Cloudy 49 9.4 45 7.2 86 86 W 12 19 29.88 1012 9 14 0.00 0.00
10:52 am 10:52 Cloudy 49 9.4 45 7.2 86 86 WNW 12 19 29.87 1012 8 13 0.00 0.00
11:52 am 11:52 Cloudy 50 10 44 6.7 80 80 W 12 19 29.89 1012 10 16 0.00 0.00
12:19 pm 12:19 Cloudy 51 10.6 44 6.7 77 77 W 13 20 29.91 1013 10 16 0.00 0.00
12:52 pm 12:52 Cloudy 52 11.1 44 6.7 75 75 W 13 20 29.90 1012 10 16 0.00 0.00
1:52 pm 13:52 Cloudy 52 11.1 44 6.7 75 75 WNW 12 19 29.90 1013 10 16 0.00 0.00
2:52 pm 14:52 Cloudy 54 12.2 44 6.7 69 69 NW 13 20 29.90 1013 10 16 0.00 0.00
2:59 pm 14:59 Cloudy 54 12.2 44 6.7 69 69 WNW 14 22 29.91 1013 10 16 0.00 0.00
3:52 pm 15:52 Cloudy 54 12.2 43 6.1 67 67 NW 15 24 29.91 1013 10 16 0.00 0.00
4:52 pm 16:52 Cloudy 54 12.2 44 6.7 69 69 NW 14 22 29.91 1013 10 16 0.00 0.00
5:52 pm 17:52 Cloudy 54 12.2 44 6.7 69 69 WNW 10 17 29.93 1013 10 16 0.00 0.00
6:52 pm 18:52 Cloudy 54 12.2 44 6.7 69 69 WNW 8 13 29.93 1014 10 16 0.00 0.00
7:52 pm 19:52 Cloudy 53 11.7 45 7.2 74 74 W 6 9 29.95 1014 10 16 0.00 0.00
8:52 pm 20:52 Cloudy 52 11.1 46 7.8 80 80 W 3 6 29.96 1015 10 16 0.00 0.00
9:52 pm 21:52 Cloudy 52 11.1 45 7.2 77 77 W 3 6 29.98 1015 10 16 0.00 0.00
10:52 pm 22:52 Cloudy 52 11.1 45 7.2 77 77 W 6 9 29.99 1016 10 16 0.00 0.00
11:52 pm 23:52 Cloudy 51 10.6 46 7.8 83 83 W 6 9 29.99 1016 10 16 0.00 0.00

Powered by AerisWeather